Torna al catalogo

STARLINK-3871

AttivoComunicazioniVLEO
NORAD 52496·PAYLOAD·🇺🇸 United States

Lanciato May 6, 2022 da Cape Canaveral Space Force Station

Loading…

Prossimi Passaggi (prossime 24 ore)

TLE

AggiornatoSource: CelesTrak SupGP

Epoca: Sep 14, 2026, 20:37 UTC

1 52496C 22049AX  26257.85951389  .00041825  00000+0  12361-2 0  2574
2 52496  53.1602 263.7610 0001292  91.2954  77.8132 15.34360339    10

Traccia STARLINK-3871 in tempo reale con AllMySat

Download on the App Store